Vertical_Velocity
-2 1 -1 -2 -1 1 -2 -2 -2 -0 -0 -2 -3 -4 -3 -0 1 0 1 1 -0 -2 -2 -4 -0 -1 -1 6 4 -0 -1 -3 -2 -3 -1 -2 -2 0 -1 -0 -1 -0 0
-0 -1 -1 -1 0 -0 2 -0 -2 -1 -1 -1 1 0 -1 -2 -1 -2 0 0 -1 -3 -1 -3 -3 -5 -3 -4 -3 -2 -1 -1 -4 -1 -0 0 -2 -1 -2 1 2 2 -1
-0 -1 -4 -1 0 -0 1 -1 -0 1 1 -2 -3 1 1 -2 -1 0 -1 -1 -4 -3 -3 -1 -2 -3 -2 -1 -1 0 1 -1 -2 0 -0 0 0 1 -1 0 1 2 -2
-1 -1 -2 -3 -1 1 1 1 2 1 -1 0 -1 1 -1 -3 1 -1 -1 -2 -2 -2 2 1 1 2 1 -0 0 1 1 0 -2 1 1 -1 -2 2 -0 -1 0 3 1
-1 -1 -0 -1 -2 0 1 -1 -1 0 0 -1 1 0 0 3 1 -0 -1 -4 -2 -0 -1 2 0 -0 -0 -1 -0 -1 0 -1 -1 1 2 2 1 0 1 -1 1 2 4
-1 -1 -2 1 -1 -0 1 -0 2 -2 -1 0 -1 1 -2 2 3 4 3 -8 -0 -0 -1 -0 1 0 1 0 1 -0 1 1 1 3 2 2 1 2 4 -0 1 4 3
0 2 -1 -0 -1 1 0 -0 1 0 -2 -1 0 1 0 -1 -1 2 -2 -0 1 0 1 -0 -1 -1 1 -0 -0 1 1 0 1 2 2 1 2 0 -1 1 1 2 3
-1 -1 -1 3 0 1 -2 1 -1 0 -2 -3 -0 2 1 -1 -2 -1 2 2 -2 0 -1 -0 -2 -1 -1 -1 1 0 1 0 1 2 1 1 2 1 -0 -1 2 0 0
0 -2 -0 0 2 -0 -2 2 -2 -1 -0 -1 -1 1 2 -1 -1 1 -2 1 0 1 -0 0 -1 0 -1 -0 -0 0 0 1 0 1 1 3 2 1 3 2 3 0 1
1 1 -0 0 0 -1 3 -1 0 -1 2 0 -1 2 -3 -1 -4 1 -2 -1 0 -1 -1 1 -1 0 -0 0 -1 -1 -0 1 0 0 1 2 1 1 1 1 0 -0 2
1 1 -0 -3 0 5 -1 2 -1 -0 0 0 -1 1 -2 -1 -1 -1 -1 0 0 -2 -1 -2 -0 -1 -1 -1 -1 -2 -3 -1 -2 -0 -0 2 1 4 3 -3 -2 2 -0
-1 -1 0 0 -0 1 -2 1 2 1 -0 2 -0 3 -1 1 1 4 -2 1 1 1 2 1 2 2 1 0 -0 1 -0 -0 1 -2 -2 2 1 -0 1 1 2 -1 1
2 2 0 1 3 -0 -1 1 0 0 -0 2 2 1 -1 1 -4 -1 -3 -1 1 1 1 1 2 1 0 -0 1 0 0 0 -0 1 0 0 3 -1 2 3 10 4 3
-1 -1 1 1 1 2 1 1 -2 2 1 2 1 -0 1 -2 -1 -0 0 -3 2 2 1 -3 -3 -2 -1 -1 -2 -1 -0 1 0 -2 -1 0 -2 0 -1 -1 -1 1 1
-3 0 -2 1 2 3 1 0 1 3 -2 -2 0 2 2 3 1 0 2 1 2 1 2 0 -0 1 -1 -1 1 -1 -1 3 2 1 -0 1 1 1 -3 -2 -1 -4 -3
1 2 2 -1 3 2 2 0 1 0 -1 2 1 2 1 -1 0 0 0 -1 -1 -1 -1 -2 -2 -2 -1 -1 -1 -0 -0 2 2 1 0 0 -0 -0 3 1 1 6 -1
2 4 -0 2 2 1 4 2 2 -0 0 3 1 0 0 -1 1 -0 1 -4 0 0 -2 -0 2 2 1 1 -1 -2 -1 1 -1 -0 0 2 1 2 1 0 1 2 1
1 -1 4 2 1 4 4 2 1 1 1 -1 -0 -1 -1 -2 -1 1 -1 -0 -0 -2 -0 -1 -2 -0 -1 -3 -3 -3 -1 2 1 1 1 2 1 0 0 2 1 1 0
2 3 -0 4 4 2 1 0 3 1 1 1 -0 -1 -3 0 2 -0 1 1 -1 0 -0 -0 0 -2 -2 -3 -4 -2 1 1 0 1 2 4 0 2 -1 0 -1 0 0
2 2 3 1 3 1 -2 3 1 1 2 1 1 1 -1 0 0 -1 0 -1 -1 -2 -1 -1 -2 0 -2 -3 -1 -2 1 1 1 1 -2 1 -1 1 0 -0 -2 0 -0
2 1 2 -1 3 0 -1 -4 1 -1 -0 2 1 2 1 0 -0 -1 -1 -2 -2 -1 -2 -2 -0 -2 -1 -3 -5 -4 -2 -0 0 1 -4 -6 -1 -2 -2 -1 -2 -3 -4
1 1 0 5 1 0 1 -1 1 -0 3 3 2 1 1 -0 -1 -2 -3 -2 -1 -1 -1 -1 -1 -1 0 -1 -3 -3 -6 -9 -3 -9 -4 -6 -0 -7 -3 -2 -3 -3 -3
0 -2 0 1 2 0 -0 1 1 4 2 -1 2 -1 -2 0 -1 -2 -1 -2 -3 -2 -2 -3 -1 -2 -1 1 1 -2 -3 -2 -6 -0 -8 -3 -2 -4 -4 -4 -3 -2 -2
-1 1 3 1 -2 1 -0 -1 3 -1 -3 1 1 -0 -0 -1 -1 -1 -2 -3 -3 -2 0 1 2 1 0 0 2 0 6 8 -1 -14 -13 -8 1 -3 -2 -2 -2 -2 -3
-0 -2 0 2 0 -0 1 5 1 1 2 0 -0 1 -1 -1 -1 -3 -2 -3 -2 -0 -0 1 2 1 -0 -0 -2 -5 -2 -0 1 3 -8 -19 -16 -10 -4 -3 -6 -3 -4
-0 -1 1 1 0 2 3 1 0 0 -1 -2 -1 -0 -1 -1 -1 -2 -2 -1 -1 -1 -0 -0 1 1 0 0 -0 1 -0 0 -2 7 3 1 5 -12 -10 -17 -12 -6 -4
Height
1500 1501 1502 1505 1507 1508 1508 1508 1508 1508 1507 1506 1506 1507 1508 1510 1511 1512 1513 1512 1511 1510 1510 1510 1511 1511 1510 1510 1511 1511 1511 1509 1508 1506 1505 1504 1503 1503 1504 1505 1504 1506 1507
1500 1501 1501 1504 1506 1507 1507 1507 1507 1507 1506 1506 1505 1505 1507 1509 1510 1511 1512 1511 1510 1510 1509 1508 1509 1509 1510 1509 1510 1510 1509 1508 1505 1504 1503 1503 1503 1503 1503 1505 1504 1505 1505
1500 1500 1501 1503 1505 1506 1506 1506 1507 1506 1505 1505 1505 1505 1506 1508 1509 1510 1510 1510 1510 1510 1508 1507 1507 1507 1508 1509 1509 1509 1508 1506 1505 1504 1503 1503 1503 1503 1502 1503 1503 1503 1504
1499 1500 1500 1503 1505 1505 1505 1506 1506 1506 1505 1505 1505 1506 1507 1508 1509 1510 1510 1510 1509 1509 1508 1507 1506 1506 1507 1507 1507 1507 1507 1505 1505 1504 1503 1503 1503 1502 1502 1503 1502 1502 1502
1499 1500 1501 1502 1504 1505 1505 1506 1506 1506 1505 1505 1505 1506 1506 1508 1509 1510 1510 1510 1509 1509 1508 1507 1506 1506 1506 1506 1506 1505 1505 1504 1504 1503 1503 1502 1502 1501 1501 1501 1501 1501 1501
1499 1500 1501 1502 1503 1504 1504 1505 1505 1505 1505 1505 1505 1505 1506 1507 1508 1509 1510 1510 1509 1508 1508 1507 1506 1506 1505 1505 1504 1504 1504 1502 1502 1501 1501 1500 1500 1500 1499 1499 1498 1498 1498
1499 1500 1500 1501 1503 1503 1504 1505 1505 1504 1504 1505 1505 1505 1505 1506 1508 1509 1511 1510 1509 1508 1508 1507 1506 1505 1504 1504 1503 1503 1502 1501 1501 1500 1499 1499 1498 1497 1497 1497 1498 1497 1496
1499 1499 1500 1501 1502 1503 1504 1504 1505 1504 1504 1504 1505 1505 1505 1505 1507 1509 1509 1509 1509 1508 1507 1506 1506 1505 1504 1503 1503 1502 1501 1500 1500 1499 1498 1497 1496 1495 1494 1494 1495 1494 1493
1497 1498 1499 1500 1501 1502 1503 1503 1504 1504 1504 1504 1505 1505 1504 1505 1506 1508 1508 1508 1508 1507 1506 1505 1505 1504 1503 1503 1502 1501 1500 1499 1498 1497 1496 1495 1495 1494 1493 1492 1491 1492 1491
1496 1497 1498 1499 1500 1501 1501 1502 1503 1504 1503 1503 1505 1504 1503 1505 1505 1506 1507 1507 1507 1507 1506 1505 1505 1504 1503 1501 1500 1500 1498 1497 1496 1495 1494 1493 1492 1491 1490 1489 1488 1488 1488
1495 1495 1496 1498 1499 1499 1500 1501 1501 1502 1502 1503 1504 1503 1503 1504 1505 1506 1506 1507 1506 1506 1505 1504 1503 1502 1501 1500 1499 1497 1496 1495 1493 1492 1491 1490 1489 1487 1486 1485 1486 1485 1484
1491 1493 1495 1495 1497 1497 1498 1499 1500 1500 1501 1502 1502 1502 1503 1504 1505 1505 1506 1506 1505 1505 1504 1503 1502 1501 1499 1498 1496 1495 1493 1492 1490 1488 1487 1486 1484 1483 1482 1482 1482 1480 1479
1489 1490 1491 1493 1494 1495 1496 1497 1498 1499 1500 1500 1502 1502 1503 1503 1504 1505 1505 1505 1504 1503 1502 1502 1500 1499 1497 1496 1493 1492 1490 1488 1486 1485 1483 1482 1480 1479 1478 1477 1476 1474 1473
1486 1488 1489 1490 1491 1492 1493 1495 1496 1497 1498 1499 1501 1501 1501 1502 1503 1504 1504 1504 1503 1502 1501 1500 1499 1497 1496 1494 1491 1489 1487 1485 1483 1481 1479 1477 1476 1475 1473 1472 1471 1469 1468
1483 1484 1485 1486 1488 1489 1491 1493 1494 1495 1496 1498 1499 1500 1500 1501 1502 1503 1503 1502 1501 1500 1499 1498 1496 1495 1493 1490 1488 1486 1484 1482 1479 1477 1475 1474 1472 1470 1470 1468 1466 1464 1463
1480 1481 1482 1484 1485 1487 1489 1491 1493 1493 1495 1497 1498 1500 1499 1500 1501 1501 1501 1501 1500 1498 1497 1495 1494 1491 1489 1487 1485 1482 1480 1478 1475 1473 1471 1470 1468 1467 1466 1464 1463 1461 1458
1475 1477 1479 1481 1483 1485 1487 1489 1490 1492 1494 1496 1496 1498 1498 1498 1500 1500 1500 1499 1498 1496 1495 1493 1491 1488 1485 1483 1480 1478 1475 1473 1470 1469 1468 1467 1465 1464 1462 1461 1459 1457 1455
1471 1473 1477 1478 1480 1483 1485 1487 1489 1490 1492 1494 1495 1497 1497 1498 1499 1499 1500 1498 1497 1495 1492 1490 1487 1484 1481 1478 1475 1473 1471 1469 1467 1466 1465 1464 1462 1460 1459 1457 1455 1452 1451
1468 1469 1473 1476 1478 1480 1482 1485 1486 1488 1490 1493 1494 1496 1497 1498 1499 1499 1499 1497 1495 1493 1489 1487 1483 1480 1477 1474 1472 1470 1468 1466 1464 1463 1462 1460 1458 1456 1454 1452 1450 1448 1446
1465 1468 1470 1474 1475 1475 1480 1483 1485 1487 1490 1493 1494 1496 1496 1498 1498 1499 1497 1495 1493 1490 1487 1484 1481 1478 1474 1471 1468 1466 1464 1463 1460 1459 1458 1456 1454 1451 1449 1447 1445 1442 1440
1461 1464 1466 1469 1471 1472 1478 1481 1484 1486 1489 1492 1494 1495 1496 1497 1497 1497 1495 1494 1491 1487 1484 1481 1478 1476 1472 1467 1463 1460 1460 1458 1455 1454 1453 1451 1449 1447 1445 1442 1440 1436 1434
1458 1460 1463 1466 1469 1473 1477 1481 1484 1486 1489 1492 1494 1494 1495 1496 1496 1495 1494 1492 1489 1486 1483 1480 1476 1473 1471 1467 1462 1458 1454 1453 1452 1451 1448 1446 1444 1442 1439 1437 1434 1431 1428
1457 1459 1462 1466 1470 1474 1477 1480 1482 1485 1488 1491 1492 1493 1494 1495 1494 1493 1492 1490 1487 1484 1481 1478 1475 1471 1468 1467 1464 1462 1459 1455 1447 1443 1442 1441 1439 1435 1433 1430 1428 1425 1422
1456 1460 1463 1466 1470 1474 1476 1478 1480 1483 1487 1490 1491 1492 1493 1493 1492 1491 1490 1488 1485 1482 1480 1477 1474 1470 1468 1464 1463 1462 1461 1458 1452 1438 1435 1433 1432 1429 1426 1424 1421 1418 1415
1456 1459 1464 1466 1470 1473 1475 1479 1482 1485 1487 1488 1490 1491 1491 1491 1490 1489 1488 1485 1483 1481 1478 1475 1473 1469 1466 1464 1461 1457 1455 1452 1450 1445 1430 1427 1425 1422 1420 1417 1415 1411 1408
1455 1459 1463 1465 1469 1472 1475 1478 1482 1484 1485 1487 1488 1489 1490 1489 1489 1487 1486 1483 1480 1478 1476 1473 1470 1467 1464 1461 1459 1456 1452 1448 1443 1438 1429 1422 1418 1415 1414 1412 1408 1405 1403